Location: Haliburton Scout Reserve
(45.0900°N, 78.3200°W)
Time: 12:13:11
(UTC-05:00)

Tiros 1 - Visible Passes

Search period start: 07 February 2023 00:00
Search period end: 17 February 2023 00:00
Orbit: 629 x 662 km, 48.4° (Epoch: 06 February)

Date Brightness Start Highest point End Pass type
(mag) Time Alt. Az. Time Alt. Az. Time Alt. Az.
07 Feb 10.0 03:59:31 12° ESE 03:59:31 12° ESE 03:59:56 10° ESE visible
07 Feb 8.4 05:37:10 25° SW 05:37:10 25° SW 05:40:50 10° SSE visible
08 Feb 9.6 04:24:15 15° SE 04:24:15 15° SE 04:25:06 10° SE visible
08 Feb 9.2 06:01:54 12° SW 06:01:55 12° SW 06:03:49 10° SSW visible
09 Feb 9.5 04:49:05 13° SSE 04:49:05 13° SSE 04:49:39 10° SSE visible
12 Feb 9.7 20:10:42 10° SSW 20:10:51 11° SSW 20:10:51 11° SSW visible
13 Feb 9.2 18:56:44 10° SSE 18:58:09 12° SE 18:58:09 12° SE visible
13 Feb 9.7 20:35:14 10° SW 20:35:49 13° SW 20:35:49 13° SW visible
14 Feb 8.4 19:19:31 10° SSW 19:23:03 24° SE 19:23:03 24° SE visible
14 Feb 9.9 21:00:22 10° WSW 21:00:42 12° WSW 21:00:42 12° WSW visible
15 Feb 7.6 19:43:56 10° SW 19:47:50 44° SSE 19:47:50 44° SSE visible
16 Feb 8.5 18:28:21 10° S 18:31:56 22° SE 18:34:54 13° E visible
16 Feb 7.7 20:09:00 10° WSW 20:12:32 52° SW 20:12:32 52° SW visible
